Massena, NY

9:19 PM EST on February 11, 2016 (GMT -0500)
Massena International-Richards

Weather History for KMSS - December, 2012

Change the Weather History Date:

Saturday, December 1, 2012

  Actual Average Record
Temperature  
Mean Temperature 19 °F 29 °F  
Max Temperature 24 °F 37 °F 63 °F (2010)
Min Temperature 13 °F 21 °F -4 °F (1989)
Degree Days  
Heating Degree Days 46 36  
Month to date heating degree days 46 36  
Since 1 July heating degree days 1653 1805  
Cooling Degree Days 0 0  
Month to date cooling degree days 0  
Year to date cooling degree days 363  
Moisture  
Dew Point 9 °F    
Average Humidity 65    
Maximum Humidity 77    
Minimum Humidity 53    
Precipitation  
Precipitation 0.00 in 0.09 in 0.94 in (2004)
Month to date precipitation 0.00 0.09  
Year to date precipitation 26.48 32.62  
Sea Level Pressure  
Sea Level Pressure 30.48 in    
Wind  
Wind Speed 11 mph (ENE)    
Max Wind Speed 18 mph    
Max Gust Speed 25 mph    
Visibility 10 miles    
Events      
T = Trace of Precipitation, MM = Missing Value Source: NWS Daily Summary

Daily Weather History Graph

Daily Weather History Graph

Search for Another Location

Airport or City:

Trip Planner

Search our weather history database for the weather conditions in past years. The results will help you decide how hot, cold, wet, or windy it might be!

Date:

Astronomy

Dec. 01, 2012 Rise Set
Actual Time 7:17 AM EST 4:19 PM EST
Civil Twilight 6:44 AM EST 4:52 PM EST
Nautical Twilight 6:07 AM EST 5:29 PM EST
Astronomical Twilight 5:32 AM EST 6:04 PM EST
Moon 7:09 PM EST (12/1) 9:27 AM EST (12/1)
Length of Visible Light 10h 07m
Length of Day
9h 01m
Waning Gibbous, 92% of the Moon is Illuminated
Dec 1
Waning Gibbous
Dec 6
Last Quarter
Dec 13
New
Dec 20
First Quarter
Dec 28
Full

Hourly Weather History & Observations

Time (EST) Temp. Windchill Dew Point Humidity Pressure Visibility Wind Dir Wind Speed Gust Speed Precip Events Conditions
12:53 AM 15.1 °F -0.1 °F 3.0 °F 59% 30.58 in 10.0 mi ENE 15.0 mph - N/A   Overcast
1:53 AM 14.0 °F -0.8 °F 1.9 °F 59% 30.58 in 10.0 mi ENE 13.8 mph - N/A   Overcast
2:53 AM 15.1 °F -0.1 °F 1.9 °F 56% 30.59 in 10.0 mi ENE 15.0 mph 23.0 mph N/A   Overcast
3:53 AM 16.0 °F 1.1 °F 3.9 °F 59% 30.58 in 10.0 mi ENE 15.0 mph - N/A   Overcast
4:53 AM 15.1 °F 2.5 °F 3.0 °F 59% 30.56 in 10.0 mi ENE 10.4 mph - N/A   Overcast
5:32 AM 15.8 °F 2.7 °F 3.2 °F 58% 30.55 in 10.0 mi ENE 11.5 mph - N/A   Overcast
5:53 AM 16.0 °F 2.3 °F 3.9 °F 59% 30.57 in 10.0 mi ENE 12.7 mph - N/A   Overcast
6:53 AM 16.0 °F 2.3 °F 5.0 °F 62% 30.58 in 10.0 mi East 12.7 mph - N/A   Overcast
7:53 AM 16.0 °F 2.9 °F 5.0 °F 62% 30.57 in 10.0 mi East 11.5 mph - N/A   Overcast
8:53 AM 16.0 °F 2.9 °F 6.1 °F 65% 30.57 in 10.0 mi ENE 11.5 mph 21.9 mph N/A   Overcast
9:53 AM 17.1 °F 3.0 °F 7.0 °F 65% 30.57 in 10.0 mi ENE 13.8 mph - N/A   Overcast
10:53 AM 18.0 °F 6.1 °F 7.0 °F 62% 30.54 in 10.0 mi ENE 10.4 mph - N/A   Overcast
11:37 AM 19.4 °F 7.2 °F 8.6 °F 63% 30.48 in 10.0 mi East 11.5 mph - N/A   Overcast
11:53 AM 18.0 °F 6.1 °F 8.1 °F 65% 30.51 in 10.0 mi East 10.4 mph - N/A   Overcast
12:03 PM 19.4 °F 9.5 °F 8.6 °F 63% 30.48 in 10.0 mi ENE 8.1 mph - N/A   Overcast
12:53 PM 21.2 °F 10.1 °F 12.2 °F 68% 30.46 in 10.0 mi ENE 10.4 mph - N/A   Overcast
1:53 PM 21.0 °F 9.3 °F 12.9 °F 71% 30.49 in 10.0 mi ENE 11.5 mph - N/A   Overcast
2:53 PM 19.9 °F 8.6 °F 10.9 °F 68% 30.46 in 10.0 mi ENE 10.4 mph - N/A   Overcast
3:53 PM 19.9 °F 8.6 °F 12.0 °F 71% 30.46 in 10.0 mi ENE 10.4 mph - N/A   Overcast
4:53 PM 19.4 °F 7.9 °F 12.2 °F 74% 30.42 in 10.0 mi ENE 10.4 mph - N/A   Overcast
5:53 PM 19.9 °F 9.3 °F 12.9 °F 74% 30.43 in 10.0 mi East 9.2 mph - N/A   Overcast
6:53 PM 21.0 °F 9.9 °F 14.0 °F 74% 30.42 in 10.0 mi ENE 10.4 mph - N/A   Overcast
7:41 PM 21.2 °F 10.9 °F 14.0 °F 74% 30.38 in 10.0 mi East 9.2 mph - N/A   Overcast
7:53 PM 21.0 °F 11.4 °F 14.0 °F 74% 30.39 in 10.0 mi East 8.1 mph - N/A   Overcast
8:53 PM 21.0 °F 11.4 °F 14.0 °F 74% 30.37 in 10.0 mi East 8.1 mph - N/A   Overcast
9:53 PM 21.9 °F 14.5 °F 15.1 °F 75% 30.35 in 10.0 mi ENE 5.8 mph - N/A   Overcast
10:53 PM 23.0 °F 18.4 °F 16.0 °F 74% 30.32 in 10.0 mi East 3.5 mph - N/A   Overcast
11:53 PM 24.1 °F 19.7 °F 18.0 °F 77% 30.30 in 10.0 mi East 3.5 mph - N/A   Overcast